Time,TemperatureF,DewpointF,PressureIn,WindDirection,WindDirectionDegrees,WindSpeedMPH,WindSpeedGustMPH,Humidity,HourlyPrecipIn,Conditions,Clouds,dailyrainin,SoftwareType,DateUTC
2013-02-21 00:11:00,24.0,11.0,30.16,NE,51,7.0,10.0,56,0.00,,,0.00,,2013-02-21 06:11:00,
2013-02-21 00:21:00,24.0,12.0,30.14,East,86,6.0,12.0,59,0.00,,,0.00,,2013-02-21 06:21:00,
2013-02-21 00:31:00,23.0,12.0,30.12,NE,55,10.0,15.0,62,0.00,,,0.00,,2013-02-21 06:31:00,
2013-02-21 00:41:00,23.0,12.0,30.12,NE,55,10.0,15.0,62,0.00,,,0.00,,2013-02-21 06:41:00,
2013-02-21 00:51:00,23.0,12.0,30.11,ENE,64,8.0,14.0,62,0.00,,,0.00,,2013-02-21 06:51:00,
2013-02-21 01:01:00,23.0,12.0,30.12,ENE,76,7.0,12.0,62,0.00,,,0.00,,2013-02-21 07:01:00,
2013-02-21 01:11:00,23.0,12.0,30.12,ENE,65,8.0,13.0,61,0.00,,,0.00,,2013-02-21 07:11:00,
2013-02-21 01:21:00,23.0,12.0,30.12,ENE,65,8.0,13.0,61,0.00,,,0.00,,2013-02-21 07:21:00,
2013-02-21 01:32:00,23.0,11.0,30.12,ENE,66,8.0,14.0,59,0.00,,,0.00,,2013-02-21 07:32:00,
2013-02-21 01:42:00,23.0,10.0,30.11,ENE,59,9.0,14.0,58,0.00,,,0.00,,2013-02-21 07:42:00,
2013-02-21 01:52:00,23.0,10.0,30.11,ENE,59,9.0,14.0,58,0.00,,,0.00,,2013-02-21 07:52:00,
2013-02-21 02:01:00,23.0,11.0,30.08,ENE,72,8.0,15.0,59,0.00,,,0.00,,2013-02-21 08:01:00,
2013-02-21 02:11:00,23.0,11.0,30.07,East,82,9.0,18.0,59,0.00,,,0.00,,2013-02-21 08:11:00,
2013-02-21 02:21:00,23.0,11.0,30.07,East,82,9.0,18.0,59,0.00,,,0.00,,2013-02-21 08:21:00,
2013-02-21 02:32:00,23.0,11.0,30.07,ENE,78,10.0,19.0,59,0.00,,,0.00,,2013-02-21 08:32:00,
2013-02-21 02:41:00,23.0,11.0,30.07,ENE,78,10.0,19.0,59,0.00,,,0.00,,2013-02-21 08:41:00,
2013-02-21 02:52:00,23.0,11.0,30.06,ENE,63,9.0,15.0,60,0.00,,,0.00,,2013-02-21 08:52:00,
2013-02-21 03:01:00,23.0,11.0,30.07,ENE,76,11.0,19.0,59,0.00,,,0.00,,2013-02-21 09:01:00,
2013-02-21 03:11:00,23.0,11.0,30.07,ENE,76,11.0,19.0,59,0.00,,,0.00,,2013-02-21 09:11:00,
2013-02-21 03:22:00,23.0,11.0,30.06,ENE,77,9.0,15.0,60,0.00,,,0.00,,2013-02-21 09:22:00,
2013-02-21 03:31:00,23.0,11.0,30.05,ENE,68,10.0,19.0,60,0.00,,,0.00,,2013-02-21 09:31:00,
2013-02-21 03:41:00,23.0,12.0,30.03,East,81,9.0,20.0,61,0.00,,,0.00,,2013-02-21 09:41:00,
2013-02-21 03:52:00,23.0,12.0,30.03,East,81,9.0,20.0,61,0.00,,,0.00,,2013-02-21 09:52:00,
2013-02-21 04:01:00,23.0,12.0,30.01,East,89,11.0,19.0,62,0.00,,,0.00,,2013-02-21 10:01:00,
2013-02-21 04:11:00,23.0,12.0,30.01,East,89,11.0,19.0,62,0.00,,,0.00,,2013-02-21 10:11:00,
2013-02-21 04:21:00,23.0,12.0,30.01,East,91,11.0,16.0,63,0.00,,,0.00,,2013-02-21 10:21:00,
2013-02-21 04:31:00,23.0,12.0,30.00,ENE,61,10.0,19.0,63,0.00,,,0.00,,2013-02-21 10:31:00,
2013-02-21 04:41:00,23.0,12.0,30.00,ENE,61,10.0,19.0,63,0.00,,,0.00,,2013-02-21 10:41:00,
2013-02-21 04:51:00,23.0,12.0,30.01,East,101,10.0,18.0,63,0.00,,,0.00,,2013-02-21 10:51:00,
2013-02-21 05:01:00,22.0,12.0,30.00,ENE,70,9.0,14.0,64,0.00,,,0.00,,2013-02-21 11:01:00,
2013-02-21 05:11:00,22.0,12.0,30.00,ENE,70,9.0,14.0,64,0.00,,,0.00,,2013-02-21 11:11:00,
2013-02-21 05:21:00,22.0,12.0,30.01,East,91,9.0,18.0,64,0.00,,,0.00,,2013-02-21 11:21:00,
2013-02-21 05:31:00,22.0,13.0,30.01,ENE,58,9.0,18.0,67,0.00,,,0.00,,2013-02-21 11:31:00,
2013-02-21 05:41:00,22.0,13.0,30.01,ENE,58,9.0,18.0,67,0.00,,,0.00,,2013-02-21 11:41:00,
2013-02-21 05:52:00,21.0,14.0,30.00,East,80,10.0,16.0,73,0.00,,,0.00,,2013-02-21 11:52:00,
2013-02-21 06:01:00,21.0,15.0,30.00,East,89,9.0,14.0,78,0.00,,,0.00,,2013-02-21 12:01:00,
2013-02-21 06:11:00,21.0,15.0,30.00,East,89,9.0,14.0,78,0.00,,,0.00,,2013-02-21 12:11:00,
2013-02-21 06:21:00,21.0,16.0,30.01,East,81,9.0,16.0,81,0.00,,,0.00,,2013-02-21 12:21:00,
2013-02-21 06:32:00,20.0,16.0,30.00,ENE,71,9.0,13.0,84,0.00,,,0.00,,2013-02-21 12:32:00,
2013-02-21 06:42:00,20.0,16.0,29.97,ENE,71,10.0,19.0,86,0.00,,,0.00,,2013-02-21 12:42:00,
2013-02-21 06:53:00,20.0,16.0,29.97,ENE,71,10.0,19.0,86,0.00,,,0.00,,2013-02-21 12:53:00,
2013-02-21 07:01:00,20.0,17.0,29.96,ENE,65,9.0,19.0,87,0.00,,,0.00,,2013-02-21 13:01:00,
2013-02-21 07:12:00,20.0,17.0,29.96,ENE,65,9.0,19.0,87,0.00,,,0.00,,2013-02-21 13:12:00,
2013-02-21 07:22:00,20.0,16.0,29.96,ENE,74,9.0,21.0,86,0.00,,,0.00,,2013-02-21 13:22:00,
2013-02-21 07:32:00,19.0,16.0,29.98,ENE,63,8.0,14.0,87,0.00,,,0.00,,2013-02-21 13:32:00,
2013-02-21 07:41:00,19.0,16.0,29.98,ENE,63,8.0,14.0,87,0.00,,,0.00,,2013-02-21 13:41:00,
2013-02-21 07:52:00,19.0,16.0,30.00,East,101,9.0,14.0,88,0.00,,,0.00,,2013-02-21 13:52:00,
2013-02-21 08:02:00,19.0,16.0,29.98,East,81,11.0,15.0,89,0.00,,,0.00,,2013-02-21 14:02:00,
2013-02-21 08:11:00,19.0,16.0,29.98,East,81,11.0,15.0,89,0.00,,,0.00,,2013-02-21 14:11:00,
2013-02-21 08:21:00,19.0,17.0,29.96,ENE,66,11.0,18.0,90,0.00,,,0.00,,2013-02-21 14:21:00,
2013-02-21 08:32:00,19.0,17.0,29.96,East,87,11.0,19.0,90,0.00,,,0.00,,2013-02-21 14:32:00,
2013-02-21 08:42:00,19.0,17.0,29.96,ENE,71,11.0,20.0,90,0.00,,,0.00,,2013-02-21 14:42:00,
2013-02-21 08:52:00,19.0,17.0,29.96,ENE,71,11.0,20.0,90,0.00,,,0.00,,2013-02-21 14:52:00,
2013-02-21 09:01:00,19.0,17.0,29.95,ENE,68,12.0,20.0,91,0.00,,,0.00,,2013-02-21 15:01:00,
2013-02-21 09:12:00,19.0,17.0,29.95,ENE,68,12.0,20.0,91,0.00,,,0.00,,2013-02-21 15:12:00,
2013-02-21 09:21:00,19.0,17.0,29.93,ENE,65,13.0,21.0,91,0.00,,,0.00,,2013-02-21 15:21:00,
2013-02-21 09:32:00,19.0,17.0,29.92,East,94,10.0,19.0,91,0.00,,,0.00,,2013-02-21 15:32:00,
2013-02-21 09:42:00,19.0,17.0,29.92,East,94,10.0,19.0,91,0.00,,,0.00,,2013-02-21 15:42:00,
2013-02-21 09:52:00,19.0,17.0,29.92,ENE,64,10.0,20.0,91,0.00,,,0.00,,2013-02-21 15:52:00,
2013-02-21 10:01:00,19.0,17.0,29.91,NNE,12,12.0,20.0,91,0.00,,,0.00,,2013-02-21 16:01:00,
2013-02-21 10:12:00,19.0,17.0,29.91,NE,53,9.0,15.0,91,0.00,,,0.00,,2013-02-21 16:12:00,
2013-02-21 10:21:00,19.0,17.0,29.91,NE,53,9.0,15.0,91,0.00,,,0.00,,2013-02-21 16:21:00,
2013-02-21 10:32:00,19.0,17.0,29.91,NE,56,2.0,16.0,91,0.00,,,0.00,,2013-02-21 16:32:00,
2013-02-21 10:42:00,20.0,18.0,29.89,NE,56,11.0,15.0,92,0.00,,,0.00,,2013-02-21 16:42:00,
2013-02-21 10:52:00,20.0,18.0,29.89,NE,56,11.0,15.0,92,0.00,,,0.00,,2013-02-21 16:52:00,
2013-02-21 11:01:00,20.0,18.0,29.89,East,80,12.0,19.0,91,0.00,,,0.00,,2013-02-21 17:01:00,
2013-02-21 11:11:00,20.0,18.0,29.90,ENE,60,8.0,16.0,92,0.00,,,0.00,,2013-02-21 17:11:00,
2013-02-21 11:21:00,20.0,18.0,29.90,ENE,60,8.0,16.0,92,0.00,,,0.00,,2013-02-21 17:21:00,
2013-02-21 11:32:00,20.0,18.0,29.91,ENE,78,7.0,16.0,91,0.00,,,0.00,,2013-02-21 17:32:00,
2013-02-21 11:42:00,20.0,18.0,29.91,ENE,78,7.0,16.0,91,0.00,,,0.00,,2013-02-21 17:42:00,
2013-02-21 11:52:00,20.0,18.0,29.91,NE,49,9.0,15.0,92,0.00,,,0.00,,2013-02-21 17:52:00,
2013-02-21 12:01:00,20.0,18.0,29.90,ENE,77,10.0,21.0,91,0.00,,,0.00,,2013-02-21 18:01:00,
2013-02-21 12:11:00,20.0,18.0,29.90,ENE,77,10.0,21.0,91,0.00,,,0.00,,2013-02-21 18:11:00,
2013-02-21 12:22:00,21.0,19.0,29.89,ENE,73,9.0,13.0,92,0.00,,,0.00,,2013-02-21 18:22:00,
2013-02-21 12:31:00,21.0,19.0,29.88,ENE,68,10.0,18.0,91,0.00,,,0.00,,2013-02-21 18:31:00,
2013-02-21 12:42:00,21.0,19.0,29.88,ENE,68,10.0,18.0,91,0.00,,,0.00,,2013-02-21 18:42:00,
2013-02-21 12:52:00,21.0,19.0,29.87,ENE,57,10.0,18.0,92,0.00,,,0.00,,2013-02-21 18:52:00,
2013-02-21 13:01:00,21.0,19.0,29.85,ENE,66,10.0,21.0,92,0.00,,,0.00,,2013-02-21 19:01:00,
2013-02-21 13:12:00,21.0,19.0,29.85,ENE,66,10.0,21.0,92,0.00,,,0.00,,2013-02-21 19:12:00,
2013-02-21 13:21:00,21.0,19.0,29.86,ENE,62,10.0,19.0,91,0.00,,,0.00,,2013-02-21 19:21:00,
2013-02-21 13:31:00,21.0,19.0,29.83,ENE,70,10.0,20.0,91,0.00,,,0.00,,2013-02-21 19:31:00,
2013-02-21 13:41:00,21.0,19.0,29.83,ENE,70,10.0,20.0,91,0.00,,,0.00,,2013-02-21 19:41:00,
2013-02-21 13:52:00,21.0,19.0,29.82,East,95,10.0,18.0,91,0.00,,,0.00,,2013-02-21 19:52:00,
2013-02-21 14:01:00,22.0,20.0,29.83,East,90,10.0,16.0,91,0.00,,,0.00,,2013-02-21 20:01:00,
2013-02-21 14:11:00,22.0,20.0,29.83,NE,40,10.0,15.0,92,0.00,,,0.00,,2013-02-21 20:11:00,
2013-02-21 14:21:00,22.0,20.0,29.83,NE,40,10.0,15.0,92,0.00,,,0.00,,2013-02-21 20:21:00,
2013-02-21 14:31:00,22.0,20.0,29.82,NE,49,8.0,14.0,92,0.00,,,0.00,,2013-02-21 20:31:00,
2013-02-21 14:41:00,22.0,20.0,29.82,NE,49,8.0,14.0,92,0.00,,,0.00,,2013-02-21 20:41:00,
2013-02-21 14:53:00,22.0,20.0,29.81,East,94,8.0,13.0,92,0.00,,,0.00,,2013-02-21 20:53:00,
2013-02-21 15:02:00,22.0,20.0,29.81,NE,34,8.0,18.0,92,0.00,,,0.00,,2013-02-21 21:02:00,
2013-02-21 15:11:00,22.0,20.0,29.81,NE,53,8.0,13.0,92,0.00,,,0.00,,2013-02-21 21:11:00,
2013-02-21 15:21:00,22.0,20.0,29.81,NE,53,8.0,13.0,92,0.00,,,0.00,,2013-02-21 21:21:00,
2013-02-21 15:31:00,22.0,20.0,29.80,ENE,60,8.0,14.0,92,0.00,,,0.00,,2013-02-21 21:31:00,
2013-02-21 15:42:00,22.0,20.0,29.80,ENE,61,8.0,13.0,92,0.00,,,0.00,,2013-02-21 21:42:00,
2013-02-21 15:52:00,22.0,20.0,29.80,ENE,61,8.0,13.0,92,0.00,,,0.00,,2013-02-21 21:52:00,
2013-02-21 16:01:00,23.0,21.0,29.80,ENE,63,9.0,14.0,92,0.00,,,0.00,,2013-02-21 22:01:00,
2013-02-21 16:11:00,23.0,21.0,29.80,ENE,63,9.0,14.0,92,0.00,,,0.00,,2013-02-21 22:11:00,
2013-02-21 16:21:00,23.0,21.0,29.80,NE,49,10.0,14.0,92,0.00,,,0.00,,2013-02-21 22:21:00,
2013-02-21 16:31:00,23.0,21.0,29.79,NNE,28,8.0,13.0,93,0.00,,,0.00,,2013-02-21 22:31:00,
2013-02-21 16:42:00,22.0,20.0,29.79,East,79,11.0,16.0,92,0.00,,,0.00,,2013-02-21 22:42:00,
2013-02-21 16:52:00,22.0,20.0,29.79,East,79,11.0,16.0,92,0.00,,,0.00,,2013-02-21 22:52:00,
2013-02-21 17:01:00,22.0,20.0,29.78,ENE,65,8.0,14.0,92,0.00,,,0.00,,2013-02-21 23:01:00,
2013-02-21 17:11:00,22.0,20.0,29.78,ENE,65,8.0,14.0,92,0.00,,,0.00,,2013-02-21 23:11:00,
2013-02-21 17:21:00,22.0,20.0,29.78,East,95,8.0,15.0,92,0.00,,,0.00,,2013-02-21 23:21:00,
2013-02-21 17:31:00,22.0,20.0,29.78,ENE,61,10.0,16.0,93,0.00,,,0.00,,2013-02-21 23:31:00,
2013-02-21 17:41:00,22.0,20.0,29.78,ENE,61,10.0,16.0,93,0.00,,,0.00,,2013-02-21 23:41:00,
2013-02-21 17:52:00,22.0,20.0,29.79,ENE,61,7.0,13.0,92,0.00,,,0.00,,2013-02-21 23:52:00,
2013-02-21 18:01:00,22.0,20.0,29.80,NE,52,7.0,11.0,92,0.00,,,0.00,,2013-02-22 00:01:00,
2013-02-21 18:11:00,22.0,20.0,29.80,NE,52,7.0,11.0,92,0.00,,,0.00,,2013-02-22 00:11:00,
2013-02-21 18:21:00,22.0,20.0,29.80,ENE,69,5.0,10.0,93,0.00,,,0.00,,2013-02-22 00:21:00,
2013-02-21 18:31:00,22.0,20.0,29.80,ENE,63,7.0,11.0,93,0.00,,,0.00,,2013-02-22 00:31:00,
2013-02-21 18:41:00,22.0,20.0,29.80,ENE,63,7.0,11.0,93,0.00,,,0.00,,2013-02-22 00:41:00,
2013-02-21 18:52:00,21.0,19.0,29.80,NE,38,8.0,12.0,93,0.00,,,0.00,,2013-02-22 00:52:00,
2013-02-21 19:01:00,21.0,19.0,29.81,NE,54,6.0,9.0,93,0.00,,,0.00,,2013-02-22 01:01:00,
2013-02-21 19:11:00,21.0,19.0,29.81,NE,54,6.0,9.0,93,0.00,,,0.00,,2013-02-22 01:11:00,
2013-02-21 19:21:00,21.0,19.0,29.81,ENE,62,5.0,9.0,93,0.00,,,0.00,,2013-02-22 01:21:00,
2013-02-21 19:32:00,21.0,19.0,29.80,NE,43,5.0,10.0,93,0.00,,,0.00,,2013-02-22 01:32:00,
2013-02-21 19:42:00,21.0,19.0,29.80,NE,43,5.0,10.0,93,0.00,,,0.00,,2013-02-22 01:42:00,
2013-02-21 19:52:00,21.0,19.0,29.80,NNE,23,6.0,10.0,93,0.00,,,0.00,,2013-02-22 01:52:00,
2013-02-21 20:02:00,21.0,19.0,29.80,NNE,32,4.0,8.0,93,0.00,,,0.00,,2013-02-22 02:02:00,
2013-02-21 20:11:00,21.0,19.0,29.80,NNE,32,4.0,8.0,93,0.00,,,0.00,,2013-02-22 02:11:00,
2013-02-21 20:21:00,21.0,19.0,29.80,ENE,67,6.0,9.0,93,0.00,,,0.00,,2013-02-22 02:21:00,
2013-02-21 20:31:00,21.0,19.0,29.81,NE,34,3.0,8.0,93,0.00,,,0.00,,2013-02-22 02:31:00,
2013-02-21 20:42:00,21.0,19.0,29.81,NE,49,3.0,9.0,93,0.00,,,0.00,,2013-02-22 02:42:00,
2013-02-21 20:52:00,21.0,19.0,29.81,NE,49,3.0,9.0,93,0.00,,,0.00,,2013-02-22 02:52:00,
2013-02-21 21:01:00,21.0,19.0,29.81,NNE,22,3.0,9.0,93,0.00,,,0.00,,2013-02-22 03:01:00,
2013-02-21 21:11:00,20.0,18.0,29.82,NNE,19,3.0,6.0,92,0.00,,,0.00,,2013-02-22 03:11:00,
2013-02-21 21:21:00,20.0,18.0,29.82,NNE,19,3.0,6.0,92,0.00,,,0.00,,2013-02-22 03:21:00,
2013-02-21 21:31:00,20.0,18.0,29.82,North,5,3.0,6.0,92,0.00,,,0.00,,2013-02-22 03:31:00,
2013-02-21 21:41:00,20.0,18.0,29.82,North,5,3.0,6.0,92,0.00,,,0.00,,2013-02-22 03:41:00,
2013-02-21 21:52:00,20.0,18.0,29.82,NNW,344,3.0,7.0,92,0.00,,,0.00,,2013-02-22 03:52:00,
2013-02-21 22:01:00,20.0,18.0,29.82,NNW,342,3.0,7.0,93,0.00,,,0.00,,2013-02-22 04:01:00,
2013-02-21 22:11:00,20.0,18.0,29.82,NNW,329,2.0,7.0,92,0.00,,,0.00,,2013-02-22 04:11:00,
2013-02-21 22:21:00,20.0,18.0,29.82,NNW,329,2.0,7.0,92,0.00,,,0.00,,2013-02-22 04:21:00,
2013-02-21 22:32:00,20.0,18.0,29.83,North,360,6.0,9.0,92,0.00,,,0.00,,2013-02-22 04:32:00,
2013-02-21 22:42:00,20.0,18.0,29.83,North,360,6.0,9.0,92,0.00,,,0.00,,2013-02-22 04:42:00,
2013-02-21 22:52:00,20.0,18.0,29.83,NNW,334,6.0,9.0,92,0.00,,,0.00,,2013-02-22 04:52:00,
2013-02-21 23:01:00,20.0,18.0,29.83,North,9,6.0,10.0,92,0.00,,,0.00,,2013-02-22 05:01:00,
2013-02-21 23:12:00,20.0,18.0,29.83,North,9,6.0,10.0,92,0.00,,,0.00,,2013-02-22 05:12:00,
2013-02-21 23:22:00,20.0,18.0,29.83,NW,319,5.0,9.0,92,0.00,,,0.00,,2013-02-22 05:22:00,
2013-02-21 23:32:00,20.0,18.0,29.83,North,355,7.0,10.0,92,0.00,,,0.00,,2013-02-22 05:32:00,
2013-02-21 23:41:00,20.0,18.0,29.83,North,355,7.0,10.0,92,0.00,,,0.00,,2013-02-22 05:41:00,
2013-02-21 23:52:00,20.0,18.0,29.83,NW,321,4.0,10.0,92,0.00,,,0.00,,2013-02-22 05:52:00,